"Pseudo-MPEC" for W012550

Created 2023 Nov 26 16:22:10 UT using Find_Orb

Click here for an explanation of pseudo-MPECs

 
 Astrometry: 
     W012550* C2023 11 19RD/.AstrometryAvV?Cv=aK1)JQR(CNKcHredacted;0/S,:en\aO18
     W012550  C2023 11 19KUYclickixV,_[qB_OgF#9cLhere#sY@OeZ;4p_L\($lhd'for:`O18
     W012550  C2023 11 19f5T9G?JSRD(rYC,OFEU\MZNoxU/^uN)BAP:UUlexplanationS^dO18

Station data:
(O18) WFST, Lenghu  (N38.607601 E93.895220).

Orbital elements:  W012550
   Perihelion 2023 Dec 26.24457 +/- 39.6 TT =  5:52:10 (JD 2460304.74457)
Epoch 2023 Nov 20.0 TT = JDT 2460268.5   Earth MOID: 0.0931      AutoNEOCP
M 346.43295148 +/- 17               (J2000 ecliptic)
n   0.37431949 +/- 0.288            Peri.   21.41538 +/- 70
a   1.90681146 +/- 0.978            Node    72.71440 +/- 60
e   0.4408591 +/- 0.251             Incl.    9.45720 +/- 4.5
P   2.63/961.73d           H 25.09  G  0.15   U 11.9  SR
q 1.06617609 +/- 0.213    Q 2.74744684 +/- 49.1
From 3 observations 2023 Nov. 19 (18.3 min); mean residual 0".10
Residuals in arcseconds: 
231119 O18  .04+  .09-    231119 O18  .09-  .18+    231119 O18  .04+  .09-    

Ephemerides (geocentric):
Date (UTC) HH   RA             Dec           delta  r     elong  mag " sig PA
---- --------  ------------   ------------  ------ ------ -----  --- --------
2023 11 26 16  04 03 50.908   +07 15 18.08  .13077 1.1144 166.3 21.6  50d  92
2023 11 26 17  04 03 54.442   +07 18 13.52  .13063 1.1143 166.4 21.6  50d  92
2023 11 26 18  04 03 57.985   +07 21 09.40  .13048 1.1142 166.4 21.6  50d  92
2023 11 26 19  04 04 01.537   +07 24 05.74  .13034 1.1140 166.4 21.6  50d  92
2023 11 26 20  04 04 05.098   +07 27 02.52  .13019 1.1139 166.5 21.6  51d  92
2023 11 26 21  04 04 08.668   +07 29 59.75  .13005 1.1138 166.5 21.6  51d  93
2023 11 26 22  04 04 12.247   +07 32 57.42  .12991 1.1136 166.6 21.6  51d  93
2023 11 26 23  04 04 15.835   +07 35 55.55  .12976 1.1135 166.6 21.6  51d  93
2023 11 27 00  04 04 19.433   +07 38 54.13  .12962 1.1134 166.6 21.6  51d  93
2023 11 27 01  04 04 23.039   +07 41 53.16  .12948 1.1133 166.7 21.6  51d  93
2023 11 27 02  04 04 26.654   +07 44 52.64  .12933 1.1131 166.7 21.6  51d  93
2023 11 27 03  04 04 30.279   +07 47 52.57  .12919 1.1130 166.8 21.6  51d  93
2023 11 27 04  04 04 33.913   +07 50 52.96  .12905 1.1129 166.8 21.6  52d  93
2023 11 27 05  04 04 37.556   +07 53 53.80  .12891 1.1127 166.8 21.6  52d  93
2023 11 27 06  04 04 41.208   +07 56 55.09  .12876 1.1126 166.9 21.6  52d  93
2023 11 27 07  04 04 44.870   +07 59 56.84  .12862 1.1125 166.9 21.6  52d  93
2023 11 27 08  04 04 48.541   +08 02 59.05  .12848 1.1123 167.0 21.6  52d  93
2023 11 27 09  04 04 52.221   +08 06 01.71  .12834 1.1122 167.0 21.6  52d  93
2023 11 27 10  04 04 55.911   +08 09 04.82  .12820 1.1121 167.0 21.6  52d  93
2023 11 27 11  04 04 59.610   +08 12 08.40  .12806 1.1120 167.1 21.6  53d  93
2023 11 27 12  04 05 03.319   +08 15 12.43  .12792 1.1118 167.1 21.6  53d  93
2023 11 27 13  04 05 07.037   +08 18 16.92  .12777 1.1117 167.2 21.6  53d  93
2023 11 27 14  04 05 10.765   +08 21 21.87  .12763 1.1116 167.2 21.5  53d  93
2023 11 27 15  04 05 14.503   +08 24 27.29  .12749 1.1115 167.2 21.5  53d  93
2023 11 27 16  04 05 18.250   +08 27 33.16  .12735 1.1113 167.3 21.5  54d  93
2023 11 27 17  04 05 22.007   +08 30 39.49  .12721 1.1112 167.3 21.5  54d  93
2023 11 27 18  04 05 25.773   +08 33 46.29  .12707 1.1111 167.4 21.5  54d  93
2023 11 27 19  04 05 29.549   +08 36 53.54  .12694 1.1109 167.4 21.5  54d  93
2023 11 27 20  04 05 33.335   +08 40 01.27  .12680 1.1108 167.4 21.5  54d  93
2023 11 27 21  04 05 37.131   +08 43 09.45  .12666 1.1107 167.5 21.5  54d  93
2023 11 27 22  04 05 40.936   +08 46 18.10  .12652 1.1106 167.5 21.5  54d  93
2023 11 27 23  04 05 44.752   +08 49 27.21  .12638 1.1104 167.6 21.5  55d  93
2023 11 28 00  04 05 48.577   +08 52 36.79  .12624 1.1103 167.6 21.5  55d  93
2023 11 28 01  04 05 52.412   +08 55 46.84  .12610 1.1102 167.6 21.5  55d  93
2023 11 28 02  04 05 56.257   +08 58 57.35  .12597 1.1101 167.7 21.5  55d  93
2023 11 28 03  04 06 00.112   +09 02 08.33  .12583 1.1099 167.7 21.5  55d  93
2023 11 28 04  04 06 03.978   +09 05 19.78  .12569 1.1098 167.8 21.5  55d  93
2023 11 28 05  04 06 07.853   +09 08 31.70  .12555 1.1097 167.8 21.5  55d  93
2023 11 28 06  04 06 11.738   +09 11 44.08  .12542 1.1096 167.9 21.5  55d  93
2023 11 28 07  04 06 15.634   +09 14 56.94  .12528 1.1094 167.9 21.5  55d  93
2023 11 28 08  04 06 19.540   +09 18 10.27  .12514 1.1093 167.9 21.5  55d  93
2023 11 28 09  04 06 23.456   +09 21 24.06  .12501 1.1092 168.0 21.5  55d  93
2023 11 28 10  04 06 27.382   +09 24 38.33  .12487 1.1091 168.0 21.5  55d  93
2023 11 28 11  04 06 31.318   +09 27 53.07  .12474 1.1089 168.1 21.5  55d  93
2023 11 28 12  04 06 35.265   +09 31 08.29  .12460 1.1088 168.1 21.5  55d  92
2023 11 28 13  04 06 39.222   +09 34 23.98  .12447 1.1087 168.1 21.5  56d  92
2023 11 28 14  04 06 43.190   +09 37 40.14  .12433 1.1086 168.2 21.5  56d  92
2023 11 28 15  04 06 47.168   +09 40 56.77  .12419 1.1084 168.2 21.4  56d  92